When you browse on this site, cookies collect data to enhance your experience and personalize the content and advertising you see.
Visit our Privacy Policy to learn more. By continuing to use the site, you agree to this use of cookies and data.
  • In Portugal
  • List of Countries
  • For 7 days
  • Water Temperature
  • Weather Map
  • Weather Widgets
  • user-avatar
    Login

    Hourly Weather Graz

    Today, 3 June, Wednesday

    Time Temperature Precipitation Wind Pressure Humidity
    00:00 +12°C° 0 mm 1 mps 721 mmHg 85%
    01:00 +12°C° 0 mm 1 mps 720 mmHg 85%
    02:00 +12°C° 0 mm 2 mps 720 mmHg 84%
    03:00 +12°C° 0 mm 2 mps 720 mmHg 84%
    04:00 +12°C° 0 mm 2 mps 719 mmHg 83%
    05:00 +14°C° 0 mm 2 mps 719 mmHg 78%
    06:00 +15°C° 0 mm 2 mps 719 mmHg 73%
    07:00 +17°C° 0 mm 2 mps 719 mmHg 68%
    08:00 +19°C° 0 mm 2 mps 719 mmHg 59%
    09:00 +21°C° 0 mm 2 mps 718 mmHg 49%
    10:00 +24°C° 0 mm 1 mps 718 mmHg 40%
    11:00 +25°C° 0 mm 1 mps 718 mmHg 38%
    12:00 +25°C° 0 mm 1 mps 718 mmHg 37%
    13:00 +26°C° 0 mm 1 mps 717 mmHg 35%
    14:00 +25°C° 0 mm 1 mps 717 mmHg 38%
    15:00 +24°C° 0 mm 1 mps 716 mmHg 42%
    16:00 +24°C° 0 mm 1 mps 716 mmHg 45%
    17:00 +22°C° 0.2 mm 1 mps 716 mmHg 55%
    18:00 +20°C° 0.2 mm 1 mps 715 mmHg 65%
    19:00 +19°C° 0.2 mm 1 mps 715 mmHg 74%
    20:00 +16°C° 0 mm 1 mps 715 mmHg 77%
    21:00 +15°C° 0 mm 1 mps 715 mmHg 80%
    22:00 +14°C° 0 mm 1 mps 715 mmHg 84%
    23:00 +14°C° 0 mm 1 mps 715 mmHg 84%

    Tomorrow, 4 June, Thursday

    Time Temperature Precipitation Wind Pressure Humidity
    00:00 +14°C° 0 mm 1 mps 714 mmHg 85%
    01:00 +13°C° 0 mm 1 mps 714 mmHg 86%
    02:00 +13°C° 0 mm 1 mps 713 mmHg 87%
    03:00 +13°C° 0 mm 1 mps 713 mmHg 88%
    04:00 +12°C° 0 mm 2 mps 713 mmHg 90%
    05:00 +14°C° 0 mm 2 mps 713 mmHg 85%
    06:00 +16°C° 0 mm 2 mps 713 mmHg 80%
    07:00 +18°C° 0 mm 2 mps 713 mmHg 75%
    08:00 +20°C° 0 mm 2 mps 713 mmHg 67%
    09:00 +21°C° 0 mm 2 mps 713 mmHg 59%
    10:00 +24°C° 0 mm 2 mps 713 mmHg 51%
    11:00 +25°C° 0 mm 3 mps 713 mmHg 48%
    12:00 +26°C° 0 mm 4 mps 713 mmHg 46%
    13:00 +26°C° 0 mm 4 mps 712 mmHg 43%
    14:00 +25°C° 0 mm 5 mps 712 mmHg 46%
    15:00 +23°C° 0 mm 5 mps 711 mmHg 49%
    16:00 +22°C° 0 mm 6 mps 711 mmHg 52%
    17:00 +21°C° 0 mm 5 mps 710 mmHg 59%
    18:00 +20°C° 0 mm 4 mps 710 mmHg 65%
    19:00 +18°C° 0 mm 3 mps 709 mmHg 72%
    20:00 +17°C° 0.1 mm 2 mps 710 mmHg 76%
    21:00 +17°C° 0.1 mm 2 mps 710 mmHg 81%
    22:00 +16°C° 0.1 mm 2 mps 710 mmHg 85%
    23:00 +16°C° 0 mm 2 mps 710 mmHg 87%

    Day after tomorrow, 5 June, Friday

    Time Temperature Precipitation Wind Pressure Humidity
    00:00 +15°C° 0 mm 1 mps 710 mmHg 89%
    01:00 +15°C° 0 mm 1 mps 710 mmHg 91%
    02:00 +15°C° 0.3 mm 1 mps 709 mmHg 92%
    03:00 +15°C° 0.3 mm 1 mps 709 mmHg 93%
    04:00 +15°C° 0.3 mm 1 mps 709 mmHg 94%
    05:00 +15°C° 1.8 mm 1 mps 709 mmHg 94%
    06:00 +15°C° 1.8 mm 1 mps 710 mmHg 94%
    07:00 +15°C° 1.8 mm 2 mps 710 mmHg 94%
    08:00 +15°C° 0.7 mm 1 mps 710 mmHg 91%
    09:00 +16°C° 0.7 mm 1 mps 710 mmHg 88%
    10:00 +16°C° 0.7 mm 1 mps 711 mmHg 85%
    11:00 +16°C° 1.1 mm 1 mps 711 mmHg 85%
    12:00 +16°C° 1.1 mm 1 mps 711 mmHg 84%
    13:00 +16°C° 1.1 mm 1 mps 712 mmHg 84%
    14:00 +16°C° 0.3 mm 1 mps 712 mmHg 86%
    15:00 +16°C° 0.3 mm 1 mps 713 mmHg 87%
    16:00 +15°C° 0.3 mm 1 mps 713 mmHg 88%
    17:00 +15°C° 0.1 mm 1 mps 713 mmHg 89%
    18:00 +14°C° 0.1 mm 0 mps 714 mmHg 90%
    19:00 +13°C° 0.1 mm 0 mps 714 mmHg 90%
    20:00 +13°C° 0 mm 0 mps 715 mmHg 91%
    21:00 +13°C° 0 mm 0 mps 716 mmHg 91%
    22:00 +12°C° 0 mm 0 mps 716 mmHg 92%
    23:00 +12°C° 0 mm 0 mps 717 mmHg 92%

    6 June, Saturday

    Time Temperature Precipitation Wind Pressure Humidity
    00:00 +12°C° 0 mm 0 mps 717 mmHg 92%
    01:00 +12°C° 0 mm 0 mps 717 mmHg 91%
    02:00 +12°C° 0 mm 0 mps 718 mmHg 92%
    03:00 +12°C° 0 mm 0 mps 718 mmHg 92%
    04:00 +12°C° 0 mm 0 mps 718 mmHg 92%
    05:00 +12°C° 0 mm 0 mps 718 mmHg 91%
    06:00 +13°C° 0 mm 0 mps 719 mmHg 89%
    07:00 +15°C° 0 mm 1 mps 719 mmHg 88%
    08:00 +15°C° 0.1 mm 1 mps 719 mmHg 86%
    09:00 +16°C° 0.1 mm 1 mps 719 mmHg 83%
    10:00 +16°C° 0.1 mm 1 mps 719 mmHg 81%
    11:00 +18°C° 0.1 mm 1 mps 719 mmHg 76%
    12:00 +20°C° 0.1 mm 1 mps 719 mmHg 70%
    13:00 +21°C° 0.1 mm 1 mps 719 mmHg 65%
    14:00 +21°C° 0.2 mm 1 mps 719 mmHg 67%
    15:00 +22°C° 0.2 mm 1 mps 718 mmHg 68%
    16:00 +22°C° 0.2 mm 1 mps 718 mmHg 70%
    17:00 +21°C° 0.1 mm 1 mps 718 mmHg 75%
    18:00 +20°C° 0.1 mm 1 mps 718 mmHg 80%
    19:00 +19°C° 0.1 mm 1 mps 718 mmHg 86%
    20:00 +18°C° 0 mm 1 mps 718 mmHg 88%
    21:00 +16°C° 0 mm 1 mps 718 mmHg 91%
    22:00 +15°C° 0 mm 1 mps 718 mmHg 93%
    23:00 +15°C° 0 mm 1 mps 718 mmHg 93%

    7 June, Sunday

    Time Temperature Precipitation Wind Pressure Humidity
    00:00 +14°C° 0 mm 1 mps 718 mmHg 93%
    01:00 +14°C° 0 mm 1 mps 718 mmHg 93%
    02:00 +14°C° 0 mm 1 mps 718 mmHg 94%
    03:00 +14°C° 0 mm 1 mps 718 mmHg 94%
    04:00 +13°C° 0 mm 1 mps 718 mmHg 94%
    05:00 +15°C° 0 mm 1 mps 718 mmHg 90%
    06:00 +15°C° 0 mm 0 mps 719 mmHg 86%
    07:00 +17°C° 0 mm 0 mps 719 mmHg 83%
    08:00 +17°C° 0.2 mm 0 mps 719 mmHg 82%
    09:00 +18°C° 0.2 mm 0 mps 719 mmHg 80%
    10:00 +20°C° 0.2 mm 1 mps 719 mmHg 79%
    11:00 +21°C° 1.1 mm 1 mps 719 mmHg 78%
    12:00 +22°C° 1.1 mm 1 mps 719 mmHg 78%
    13:00 +23°C° 1.1 mm 1 mps 718 mmHg 77%
    14:00 +23°C° 1.4 mm 1 mps 718 mmHg 78%
    15:00 +23°C° 1.4 mm 1 mps 718 mmHg 79%
    16:00 +23°C° 1.4 mm 1 mps 717 mmHg 80%
    17:00 +22°C° 0.4 mm 1 mps 717 mmHg 82%
    18:00 +21°C° 0.4 mm 1 mps 717 mmHg 85%
    19:00 +18°C° 0.4 mm 0 mps 717 mmHg 88%
    20:00 +19°C° 0.2 mm 1 mps 718 mmHg 89%
    21:00 +18°C° 0.2 mm 1 mps 718 mmHg 91%
    22:00 +16°C° 0.2 mm 1 mps 718 mmHg 93%
    23:00 +16°C° 0.1 mm 1 mps 718 mmHg 93%

    8 June, Monday

    Time Temperature Precipitation Wind Pressure Humidity
    00:00 +15°C° 0.1 mm 1 mps 718 mmHg 93%
    01:00 +15°C° 0.1 mm 1 mps 719 mmHg 93%
    02:00 +15°C° 0.2 mm 1 mps 719 mmHg 93%
    03:00 +15°C° 0.2 mm 1 mps 719 mmHg 93%
    04:00 +15°C° 0.2 mm 1 mps 719 mmHg 93%
    05:00 +15°C° 0.2 mm 1 mps 720 mmHg 92%
    06:00 +15°C° 0.2 mm 1 mps 720 mmHg 91%
    07:00 +15°C° 0.2 mm 1 mps 720 mmHg 90%
    08:00 +15°C° 0.3 mm 1 mps 720 mmHg 91%
    09:00 +15°C° 0.3 mm 1 mps 721 mmHg 91%
    10:00 +15°C° 0.3 mm 1 mps 721 mmHg 91%
    11:00 +15°C° 0.1 mm 1 mps 721 mmHg 88%
    12:00 +16°C° 0.1 mm 1 mps 721 mmHg 85%
    13:00 +16°C° 0.1 mm 1 mps 721 mmHg 82%
    14:00 +18°C° 0 mm 1 mps 721 mmHg 80%
    15:00 +18°C° 0 mm 1 mps 721 mmHg 79%
    16:00 +16°C° 0 mm 0 mps 721 mmHg 77%
    17:00 +16°C° 0 mm 0 mps 721 mmHg 79%
    18:00 +16°C° 0 mm 0 mps 721 mmHg 81%
    19:00 +15°C° 0 mm 0 mps 721 mmHg 84%
    20:00 +15°C° 0.1 mm 0 mps 722 mmHg 84%
    21:00 +15°C° 0.1 mm 0 mps 722 mmHg 85%
    22:00 +15°C° 0.1 mm 1 mps 722 mmHg 86%
    23:00 +15°C° 0 mm 1 mps 722 mmHg 87%
    Show more